Location: Unspecified
(0.0000°N, 0.0000°E)
Time: 06:55:09
(UTC+00:00)

Vanguard 2 - Pass Details

Date: 17 December 2018
Orbit: 553 x 2939 km, 32.9° (Epoch: 16 June)

Event Time Altitude Azimuth Distance (km) Brightness Sun altitude
Rises 04:33:38 0° 289° (WNW) 5,740 - -18.8°
Reaches altitude 10° 04:37:11 10° 284° (WNW) 4,999 - -18.0°
Exits shadow 04:40:03 19° 278° (W) 4,463 10.8 -17.4°
Maximum altitude 04:52:04 51° 213° (SSW) 3,393 10.7 -14.6°
Drops below altitude 10° 05:09:06 10° 141° (SE) 5,604 13.0 -10.7°
Sets 05:13:27 0° 136° (SE) 6,448 13.7 -9.7°
